Regional Weather Roundup
Issued by NWS

Home | Current Version | Previous Version | Text Only | Print | Product List | Glossary Off
Versions: 1 2 3 4 5 6 7 8 9 10 11 12 13 14 15 16 17 18 19 20 21 22 23 24 25 26 27 28 29 30 31 32 33 34 35 36 37 38 39 40 41 42 43 44 45 46 47 48 49 50

000
ASUS43 KMPX 311001
RWRMN
WEATHER ROUNDUP FOR MINNESOTA
NATIONAL WEATHER SERVICE TWIN CITIES/CHANHASSEN MN
500 AM CDT SUN AUG 31 2014


NOTE: "FAIR" INDICATES FEW OR NO CLOUDS BELOW 12,000 FEET WITH NO
SIGNIFICANT WEATHER AND/OR OBSTRUCTIONS TO VISIBILITY. N/A MEANS
CURRENT SKY AND/OR WEATHER CONDITIONS ARE NOT AVAILABLE.

MNZ060>063-068>070-311100-
   Twin Cities Metro

CITY           SKY/WX    TMP DP  RH WIND       PRES   REMARKS
TWIN CITIES    PTCLDY    63  61  93 SE12      29.84F
ST PAUL        CLEAR     62  61  96 SE8       29.85F
CRYSTAL        CLEAR     64  60  87 SE8       29.82F
BLAINE         CLEAR     63  63 100 E10       29.84F
LAKEVILLE      FOG       61  61 100 SE5       29.84F VSB 1/4
EDEN PRAIRIE   PTCLDY    63  61  93 SE9       29.82F
SOUTH ST PAUL  CLEAR     62  60  93 SE3       29.85F
LAKE ELMO      FAIR      61  59  94 E5        29.86F
$$
MNZ001>005-007-008-013>017-022>024-027-028-311100-
   Northwest Minnesota

CITY           SKY/WX    TMP DP  RH WIND       PRES   REMARKS
BEMIDJI        MOCLDY    62  61  95 SE8       29.77S
HALLOCK        CLOUDY    61  57  88 SE8       29.70F
ROSEAU         CLOUDY    61  55  82 SE6       29.74F
WARROAD        MOCLDY    61  55  82 SE7       29.76F
THIEF RVR FALL CLOUDY    61  57  88 SE6       29.77R
CROOKSTON      CLOUDY    61  59  94 SE9       29.73F
FOSSTON        CLOUDY    57  57 100 S3        29.78R
DETROIT LAKES  CLOUDY    63  59  88 SE10      29.75F
MOORHEAD       TSTM      63  63 100 E3        29.73R
PARK RAPIDS    CLOUDY    63  62  97 S12       29.79R
MAHNOMEN       FAIR      61  59  94 S6        29.75R
$$
MNZ006-009>011-018-025>026-311100-
   North Central Minnesota

CITY           SKY/WX    TMP DP  RH WIND       PRES   REMARKS
BAUDETTE       CLOUDY    60  58  92 SE8       29.77F
FLAG ISLAND    CLOUDY    64  61  88 S16       29.75F
INTL FALLS     CLOUDY    60  58  92 SE7       29.82F
WASKISH        CLOUDY    63  61  94 CALM      29.76F
BIG FORK       PTCLDY    61  57  88 SE5       29.82F
LONGVILLE      CLOUDY    63  61  94 SE7       29.79F
GRAND RAPIDS   CLOUDY    59  55  88 SE8       29.83F
CRANE LAKE     CLOUDY    55  55 100 CALM      29.87F
ORR            CLOUDY    59  55  88 SE6       29.83F
COOK           CLOUDY    57  55  94 E3        29.86F
WALKER         CLOUDY    63  60  91 SE7       29.77F
$$
MNZ012-019>021-037-311100-
   Northeast Minnesota

CITY           SKY/WX    TMP DP  RH WIND       PRES   REMARKS
DULUTH         CLOUDY    59  57  93 E10       29.88F
ELY            CLOUDY    55  54  94 CALM      29.89F
HIBBING        CLOUDY    59  56  89 SE6       29.86F
EVELETH        CLOUDY    57  55  94 E3        29.88F
DULUTH HARBOR  CLOUDY    61  57  88 CALM      29.89F
TWO HARBORS    CLOUDY    57  52  82 E5        29.89F HAZE
SILVER BAY     CLEAR     52  52 100 CALM      29.90F
GRAND MARAIS     N/A     53  51  93 NW3       29.92S
G MARAIS ARPRT FOG       43  39  87 CALM      29.95S VSB 3/4
$$
MNZ029>031-032-039>041-046>048-054>057-064-311100-
   West Central Minnesota

CITY           SKY/WX    TMP DP  RH WIND       PRES   REMARKS
FERGUS FALLS   CLOUDY    63  61  94 SE13      29.71F THUNDER
WHEATON        CLOUDY    61  59  94 SE12      29.69F THUNDER
MORRIS         TSTM      64  63  94 SE15      29.73R
ALEXANDRIA     CLOUDY    63  61  93 SE12G21   29.77F
ELBOW LAKE     FAIR      62  61  96 SE15G21   29.71F THUNDER
WADENA         CLOUDY    63  61  94 SE12      29.78R
GLENWOOD       MOCLDY    63  63 100 SE12      29.77F THUNDER
APPLETON       TSTM      63  61  94 SE15G21   29.70F
BENSON         MOCLDY    63  63 100 S13       29.74S THUNDER
ORTONVILLE     CLOUDY    63  59  88 SE14G20   29.69F THUNDER
MADISON        CLOUDY    64  63  94 SE14      29.69F THUNDER
WILLMAR        FAIR      64  61  88 SE10      29.78F
$$
MNZ033>034-036-042>043-049>051-058-059-311100-
   Central Minnesota

CITY           SKY/WX    TMP DP  RH WIND       PRES   REMARKS
ST CLOUD       PTCLDY    63  60  90 SE9       29.81F
SAUK CENTRE    CLOUDY    61  61 100 SE8       29.79F
PAYNESVILLE    HVY RAIN  60  60  99 E12       29.79F
AITKIN         PTCLDY    63  55  77 SE6       29.81F
PINE RIVER     CLOUDY    63  61  94 SE9       29.83S
BRAINERD       MOCLDY    60  58  92 SE9       29.80F
STAPLES        CLOUDY    63  61  94 SE7       29.79S
LONG PRAIRIE   CLOUDY    61  61 100 SE8G17    29.81R
LITTLE FALLS   PTCLDY    61  59  94 SE9       29.80S
LITCHFIELD     PTCLDY    63  63 100 SE6       29.80F
BUFFALO        CLEAR     62  60  93 SE5       29.83S
MAPLE LAKE     MOCLDY    63  62  97 E3        29.83S
$$
MNZ037-044-045-052-053-311100-
   East Central Minnesota

CITY           SKY/WX    TMP DP  RH WIND       PRES   REMARKS
PRINCETON      PTCLDY    63  61  94 SE7       29.83F
MORA           CLOUDY    55  55 100 E5        29.86F
CAMBRIDGE      CLEAR     63  54  72 E5        29.82F
RUSH CITY      MOCLDY    58  56  95 CALM      29.86S
MOOSE LAKE     CLOUDY    59  55  88 CALM      29.85F
HINCKLEY       CLOUDY    57  57 100 E6        29.85F
CLOQUET        CLOUDY    57  55  94 E7        29.87F
MCGREGOR       CLOUDY    59  57  94 SE8       29.84F
$$
MNZ071>073-080-081-089-090-097-098-311100-
   Southwest Minnesota

CITY           SKY/WX    TMP DP  RH WIND       PRES   REMARKS
MONTEVIDEO     TSTM      63  63 100 S12       29.73F
GRANITE FALLS  RAIN      62  62  99 E13       29.74F
CANBY          MOCLDY    59  59  98 SE8       29.70F
MARSHALL       MOCLDY    61  57  88 SE12      29.70F
REDWOOD FALLS  MOCLDY    61  60  97 SE10      29.76F
OLIVIA         PTCLDY    63  61  94 SE8       29.77F
PIPESTONE      MOCLDY    64  61  88 S12       29.74F
WINDOM         MOCLDY    63  61  94 SE10      29.80F
WORTHINGTON    PTCLDY    64  61  88 S12       29.80F
JACKSON        MOCLDY    63  59  88 S9        29.82F
TRACY          PTCLDY    63  61  92 S10       29.74F
SLAYTON        MOCLDY    60  60  98 CALM      29.77F
$$
MNZ065>067-074>077-082>085-091>093-311100-
   South Central Minnesota

CITY           SKY/WX    TMP DP  RH WIND       PRES   REMARKS
MANKATO        CLEAR     63  57  82 SE8       29.83S
NEW ULM        CLEAR     61  61 100 SE10      29.80F
ST JAMES       PTCLDY    61  59  94 SE7       29.83S
FAIRMONT       CLEAR     61  55  82 S8        29.83F
GLENCOE        PTCLDY    63  60  91 SE8       29.81F
FARIBAULT      CLOUDY    66  61  82 SE8       29.85F HAZE
OWATONNA       PTCLDY    63  61  94 SE7       29.86F
WASECA         CLEAR     59  54  82 SE6       29.87S FOG
ALBERT LEA     CLEAR     63  63 100 SE5       29.87S FOG
$$
MNZ078>079-086>088-094>096-311100-
   Southeast Minnesota

CITY           SKY/WX    TMP DP  RH WIND       PRES   REMARKS
ROCHESTER      FOG       64  62  93 SE8       29.90S VSB 1/4
RED WING       PTCLDY    63  61  94 SE5       29.86F
STANTON        CLOUDY    64  62  93 SE6       29.84F FOG
DODGE CENTER   DRZL/FOG  64  63  94 SE9       29.87F VSB 1/2
WINONA         CLOUDY    63  61  94 SE6       29.89F
AUSTIN         CLEAR     59  59 100 SE3       29.87F FOG
PRESTON        FOG       63  63 100 CALM      29.90F VSB 1/4
$$
ABBREVIATIONS USED IN REMARKS
   TC - TEMPERATURES IN CELSIUS
  WCI - WIND CHILL INDEX
   HX - HEAT INDEX
  VSB - VISIBILITY
$$


USA.gov is the U.S. government's official web portal to all federal, state and local government web resources and services.